Frankfurt/Main, Germany

04:43 AM CEST am 25. April 2017 (GMT +0200)
Frankfurt | | Change Station

Höhe 0 ft 50.11 °N, 8.66 °E | Updated 6 minutes ago

Teils Wolkig
Teils Wolkig
50.9 °F
gefühlte 50.9 °F
N
0.6
Wind Wechselnd Wind aus Ost
Gusts 1.2 mph

Heute
Max. -- | schwach -- °F
--% Regenrisiko
Gestern
Max. -- | schwach -- °F
Precip. -- inch
Druck 29.68 inch
Sichtweite -9999.0 Meilen
Wolken
Taupunkt 36 °F
Feuchtigkeit 56%
Regen 0.00 inch
Schneehöhe Nicht verfügbar..
6:12 AM 8:35 PM
Letztes Viertel, 3% visible
METAR EDDF 250220Z 19003KT CAVOK 03/01 Q1005 NOSIG
Druck 29.68 inch
Sichtweite -9999.0 Meilen
Wolken
Taupunkt 36 °F
Feuchtigkeit 56%
Regen 0.00 inch
Schneehöhe Nicht verfügbar..
6:12 AM 8:35 PM
Letztes Viertel, 3% visible
METAR EDDF 250220Z 19003KT CAVOK 03/01 Q1005 NOSIG

Get Severe Weather Alerts

Thanks for signing up!

Be on the lookout for a verification email in your inbox.

You'll start receiving the daily forecast at 8 AM.

×

10-Day Weather Forecast

×

Almanac

Astronomie

Apr. 25, 2017 Aufgang Untergang
Genaue Zeit
Bürgerliche Dämmerung
Nautische Dämmerung
Astronomische Dämmerung
Mond
Länge des sichtbaren Lichts
Tageslänge
Tomorrow will be .
, % of the Moon is Illuminated

Heutige Rekorde

Country Highs Country Lows

Community

WunderPhotos

WunderBlog® & News

Nearby

Luftqualität

  Luftqualität LQ Index Schadstoff
Not available.

Schneehöhe

Station Depth Höhe

Erdbebenaktivität

Stadt Distance Mag. Time & Date
Minimum magnitude displayed is 2.5.

küstennahe Wassertemperaturen

Ort Temperatur

Stations

Wetterstationen in der Umgebung

Stationsstandort Temp. Windchill Taupunkt Feuchtigkeit Wind Precip. Höhe Aktualisiert Art